Regional Weather Roundup
Issued by NWS Bismarck, ND

Home | Current Version | Previous Version | Text Only | Print | Product List | Glossary On
Versions: 1 2 3 4 5 6 7 8 9 10 11 12 13 14 15 16 17 18 19 20 21 22 23 24 25 26 27 28 29 30 31 32 33 34 35 36 37 38 39 40 41 42 43 44 45 46 47 48 49 50
000
ASUS43 KBIS 201110
RWRBIS

NWR BROADCAST TEXT
NATIONAL WEATHER SERVICE BISMARCK ND
500 AM CST MON FEB 20 2017

NOTE: "FAIR" INDICATES FEW OR NO CLOUDS BELOW 12,000 FEET WITH NO
SIGNIFICANT WEATHER AND/OR OBSTRUCTIONS TO VISIBILITY.


CITY           SKY/WX    TMP DP  RH WIND       PRES   REMARKS
WILLISTON      MOCLDY    33  32  96 W6        29.66R
MINOT          CLOUDY    35  32  88 NW9       29.61R
MINOT AFB      CLOUDY    33  32  97 NW13      29.60R
BISMARCK       LGT RAIN  38  35  89 NW12      29.58R
DICKINSON      CLOUDY    36  33  89 NW13      29.62R
GARRISON         N/A     34  31  88 NW14      29.60R
HETTINGER ARPT CLOUDY    38  33  82 NW10      29.65R
JAMESTOWN      FOG       37  37 100 N5        29.53S VSB 1/4
CARRINGTON     FAIR      36  36 100 NW14      29.57R
HAZEN            N/A    N/A N/A N/A W3        29.65R
MANDAN         CLOUDY    37  36  93 NW13      29.59R
RUGBY          FOG       32  32 100 SW8       29.60R VSB 1/4
STANLEY        CLOUDY    34  34 100 NW12      29.62R
TIOGA          CLOUDY    32  32 100 W10       29.64R FOG
WATFORD CITY   FAIR      32  32 100 W9        29.66R
$$

CITY           SKY/WX    TMP DP  RH WIND       PRES   REMARKS
GRAND FORKS    MOCLDY    39  36  89 SE8       29.55F FOG
GRAND FORKS AF FOG       37  37 100 CALM      29.57R VSB 1/2
DEVILS LAKE    CLOUDY    36  36 100 W9        29.56S FOG
FARGO          FAIR      52  49  89 SE13      29.58F
CAVALIER       FOG       36  36 100 SE3       29.58F VSB<1/4
GRAFTON        FOG       34  34 100 E7        29.59S VSB 1/2
GWINNER        PTSUNNY   48  46  93 S10       29.57R
ROLLA          FAIR      32  32 100 NW3       29.58R FOG
$$

CITY           SKY/WX    TMP DP  RH WIND       PRES   REMARKS
ABERDEEN       CLOUDY    50  46  86 S14       29.57S
MOBRIDGE       MOCLDY    40  34  79 NW10      29.52R
BUFFALO          N/A     48  33  56 NW23      29.62R
RAPID CITY     FAIR      48  35  60 NW26G38   29.69R
GLASGOW        FAIR      28  26  92 NW7       29.68R
SIDNEY         FAIR      31  30  96 SW5       29.68R FOG
WOLF POINT     FOG       31  29  92 SW5       29.70R VSB 1/2
GLENDIVE       FAIR      37  33  85 W9        29.70R
MILES CITY     CLOUDY    39  33  79 S5        29.72R
BAKER          CLOUDY    38  34  85 W10       29.71R
$$

CITY           SKY/WX    TMP DP  RH WIND       PRES   REMARKS
BILLINGS       FAIR      35  27  72 W14       29.76R
GREAT FALLS    FAIR      32  23  69 SW15      29.71S
REGINA         FOG       30  30 100 SW6       29.61R VSB 1/4
ESTEVAN        FOG       32  32 100 W9        29.62R VSB 3/4
$$





USA.gov is the U.S. government's official web portal to all federal, state and local government web resources and services.